Starlink 35421

operational
NORAD ID: 66061 Int'l Des: 2025-235 Owner: SPXS Country: US Constellation: starlink
NOTLE

Starlink 35421について

説明を読み込み中...

リアルタイム位置

3D地球を読み込み中...

次回通過

高度履歴

Altitude vs Time

uPlot chart will show altitude changes over time

軌道要素

1 66061C 25235E 25293.06715278 .00529190 00000+0 78801-3 0 2932
2 66061 53.1589 188.8586 0006073 293.5624 197.4664 16.03535557 11
Epoch: Oct 20, 2025 • Age: 17 hours

現在のステータス

高度 268.3 km
速度 7.75 km/s
衛星直下点 -19.49°S, 98.37°E
打ち上げ日 Oct 19, 2025
運用期間 1 days
タイプ internet

技術仕様

分類 Payload
質量 575.00 kg
乾燥質量 530.00 kg
総質量 575.00 kg
長さ 0.30 m
直径 4.10 m
スパン 29.00 m
形状 Box + pan
製造者 SPXS
バスタイプ Starlink V2MO
フェーズステータス In Orbit
所有者/国 SPXS/US

大規模コンステレーション

Loading constellations...